Weather reports worldwide

Advertisment
Gardelegen, Germany (10359): temperature & dewpoint: 15.06.2018 23:00:00 - 21.06.2018 23:00:00 (CEST)Gardelegen, Germany (10359): temperature 5cm & temperature -5cm: 15.06.2018 23:00:00 - 21.06.2018 23:00:00 (CEST)Gardelegen, Germany (10359): temperature -20cm & temperature -100cm: 15.06.2018 23:00:00 - 21.06.2018 23:00:00 (CEST)Gardelegen, Germany (10359): wind speed & gusts: 15.06.2018 23:00:00 - 21.06.2018 23:00:00 (CEST)Gardelegen, Germany (10359): wind direction: 15.06.2018 23:00:00 - 21.06.2018 23:00:00 (CEST)Gardelegen, Germany (10359): reduced air pressure: 15.06.2018 23:00:00 - 21.06.2018 23:00:00 (CEST)Gardelegen, Germany (10359): visibility: 15.06.2018 23:00:00 - 21.06.2018 23:00:00 (CEST)Gardelegen, Germany (10359): sunshine duration: 15.06.2018 23:00:00 - 21.06.2018 23:00:00 (CEST)Gardelegen, Germany (10359): precipitation: 15.06.2018 23:00:00 - 21.06.2018 23:00:00 (CEST)
Date & Time tt [°C] td [°C] tt 5cm [°C] tt -5cm [°C] tt -20cm [°C] tt -100cm [°C] ff [km/h] ff [kn] fx [km/h] fx [kn] dd ppp [hPa] vv [km] sd [min] rr [mm]
21.06.2018 23:00:00 10,5 7,3 8,7 13,1 20,8 19,1 8 4 19 10 WSW 1018,1 70 0 0,0
21.06.2018 22:00:00 11,9 6,7 10,5 14,5 21,2 19,1 11 6 35 19 W 1018,0 70 9 0,0
21.06.2018 21:00:00 13,6 6,1 12,7 17,0 21,5 19,1 15 8 40 21 WNW 1017,3 6 41 0,0
21.06.2018 20:00:00 14,6 5,8 14,7 18,9 21,7 19,1 24 13 51 27 WNW 1016,9 14 42 0,0
21.06.2018 19:00:00 15,6 5,2 16,6 20,2 21,8 19,1 29 16 54 29 WNW 1016,3 5 59 0,0
21.06.2018 18:00:00 15,6 6,1 17,3 20,5 21,9 19,1 33 18 63 34 WNW 1015,7 2,8 52 0,0
21.06.2018 17:00:00 15,5 9,0 18,0 21,1 22,0 19,1 25 13 46 25 WNW 1015,1 7 53 0,0
21.06.2018 16:00:00 12,6 8,9 14,3 18,5 22,2 19,1 18 10 53 29 WNW 1015,1 12 15 0,2
21.06.2018 15:00:00 12,3 9,0 12,0 18,7 22,3 19,1 23 12 59 32 WNW 1014,6 25 1 0,3
21.06.2018 14:00:00 16,4 13,1 18,5 22,2 22,5 19,1 14 8 25 14 W 1012,7 44 1 0,1
21.06.2018 13:00:00 14,6 12,8 15,2 20,4 22,7 19,1 11 6 31 17 W 1012,5 27 0 1,1
21.06.2018 12:00:00 14,1 13,3 14,3 22,1 22,7 19,1 16 9 42 23 WNW 1012,1 6 0 1,3
21.06.2018 11:00:00 17,4 12,8 18,4 28,0 22,3 19,1 24 13 50 27 NNW 1010,1 70 21 0,0
21.06.2018 10:00:00 22,9 14,4 26,1 27,5 21,9 19,1 22 12 37 20 WSW 1009,5 17 52 0,0
21.06.2018 09:00:00 22,4 13,9 25,0 25,1 21,7 19,1 20 11 31 17 SW 1010,1 26 58 0,0
21.06.2018 08:00:00 20,9 14,4 22,6 21,4 21,8 19,1 11 6 18 10 SW 1011,2 7 37 0,0
21.06.2018 07:00:00 17,3 14,3 17,5 18,4 22,1 19,1 4 2 8 4 SW 1012,2 28 3 0,0
21.06.2018 06:00:00 14,3 13,2 13,1 17,2 22,4 19,1 4 2 6 3 SW 1012,4 21 0 0,0
21.06.2018 05:00:00 13,4 12,2 10,6 17,0 22,9 19,1 5 3 6 4 S 1013,0 17 0 0,0
21.06.2018 04:00:00 13,5 12,5 10,6 17,6 23,3 19,1 4 2 10 5 SW 1014,0 17 0 0,0
21.06.2018 03:00:00 13,5 12,6 11,3 18,4 23,8 19,1 2 1 6 3 SW 1014,9 18 0 0,0
21.06.2018 02:00:00 14,2 12,7 12,7 19,3 24,3 19,1 4 2 7 4 SW 1015,1 22 0 0,0
21.06.2018 01:00:00 14,5 13,0 12,6 20,1 24,8 19,1 4 2 6 3 S 1015,4 21 0 0,0
21.06.2018 00:00:00 15,1 13,4 13,3 21,1 25,3 19,1 4 2 5 3 WSW 1015,9 23 0 0,0
20.06.2018 23:00:00 16,9 14,2 14,6 22,8 25,8 19,1 2 1 4 2 WSW 1016,2 28 0 0,0
20.06.2018 22:00:00 20,3 14,5 17,0 25,1 26,1 19,1 3 2 8 4 SE 1016,4 37 3 0,0
20.06.2018 21:00:00 24,5 14,1 22,9 28,0 26,2 19,1 5 3 24 13 WSW 1016,4 37 60 0,0
20.06.2018 20:00:00 26,0 13,7 26,1 30,5 26,1 19,1 12 6 27 15 W 1016,8 23 60 0,0
20.06.2018 19:00:00 26,9 14,3 28,9 32,7 25,8 19,1 13 7 27 14 W 1017,2 10 58 0,0
20.06.2018 18:00:00 27,1 13,7 30,0 34,4 25,3 19,1 14 7 33 18 W 1017,8 21 56 0,0
20.06.2018 17:00:00 27,3 13,2 32,1 34,4 24,7 19,1 17 9 29 16 W 1018,5 9 37 0,0
20.06.2018 16:00:00 27,4 13,2 32,2 34,1 24,1 19,1 14 7 34 18 SW 1019,1 11 32 0,0
20.06.2018 15:00:00 25,9 13,4 30,4 33,1 23,5 19,1 15 8 30 16 WSW 1019,7 13 20 0,0
20.06.2018 14:00:00 24,5 13,9 27,7 30,7 23,1 19,1 14 7 23 12 SW 1020,5 14 2 0,0
20.06.2018 13:00:00 24,0 14,3 26,9 27,1 22,8 19,1 14 7 20 11 SW 1021,3 21 0 0,0
20.06.2018 12:00:00 23,3 14,9 25,4 25,8 22,7 19,1 12 6 24 13 SW 1021,8 24 0 0,0
20.06.2018 11:00:00 21,8 15,3 23,2 25,7 22,4 19,1 8 4 18 10 SW 1022,2 23 0 0,0
20.06.2018 10:00:00 22,2 15,8 24,3 27,0 22,1 19,1 11 6 24 13 S 1022,5 19 6 0,0
20.06.2018 09:00:00 20,9 16,5 22,8 23,8 22,0 19,1 8 5 16 8 SSW 1022,8 11 0 0,0
20.06.2018 08:00:00 19,4 16,0 20,5 21,8 22,1 19,1 8 5 13 7 S 1023,0 12 0 0,0
20.06.2018 07:00:00 18,3 15,7 18,8 20,4 22,3 19,1 5 3 6 3 S 1023,0 13 0 0,0
20.06.2018 06:00:00 17,2 15,4 17,3 19,7 22,5 19,1 2 1 5 3 S 1023,3 17 0 0,0
20.06.2018 05:00:00 17,1 15,7 16,9 19,8 22,7 19,1 0 0 3 2 N 1023,3 18 0 0,0
20.06.2018 04:00:00 17,1 15,5 17,1 20,0 23,0 19,1 2 1 4 2 SSW 1023,3 18 0 0,0
20.06.2018 03:00:00 17,7 15,9 17,3 20,1 23,3 19,1 0 0 4 2 N 1023,5 19 0 0,0
20.06.2018 02:00:00 17,6 15,6 17,4 20,3 23,6 19,1 3 2 5 3 SSW 1023,6 20 0 0,0
20.06.2018 01:00:00 17,0 15,3 16,9 20,2 24,0 19,1 5 3 6 4 SW 1023,6 18 0 0,0
20.06.2018 00:00:00 16,4 14,6 13,5 20,2 24,4 19,1 3 2 9 5 WSW 1023,5 18 0 0,0
19.06.2018 23:00:00 18,7 15,2 16,2 22,0 24,8 19,1 5 3 10 5 W 1023,3 23 0 0,0
19.06.2018 22:00:00 20,5 15,2 19,5 23,6 25,1 19,1 6 4 16 9 W 1022,9 34 0 0,0
19.06.2018 21:00:00 21,2 15,1 20,7 25,0 25,3 19,1 10 5 23 12 W 1022,4 33 10 0,0
19.06.2018 20:00:00 22,2 14,6 22,3 27,2 25,3 19,1 16 8 27 14 W 1022,4 10 25 0,0
19.06.2018 19:00:00 23,2 14,0 25,0 29,6 25,2 19,1 18 10 29 16 W 1022,4 3,4 31 0,0
19.06.2018 18:00:00 22,7 14,6 25,1 30,7 24,9 19,1 16 9 28 15 W 1022,4 24 17 0,0
19.06.2018 17:00:00 22,2 14,7 24,8 31,8 24,4 19,1 18 10 31 17 WSW 1022,5 12 16 0,0
19.06.2018 16:00:00 23,1 14,7 27,3 33,0 23,8 19,1 16 8 31 17 W 1022,2 23 17 0,0
19.06.2018 15:00:00 22,8 14,5 27,7 31,9 23,3 19,1 16 8 29 16 W 1022,0 10 4 0,0
19.06.2018 14:00:00 22,2 14,7 27,1 31,5 22,7 19,1 18 10 31 17 W 1021,8 7 8 0,0
19.06.2018 13:00:00 21,3 14,6 26,3 28,4 22,4 19,1 17 9 31 17 W 1021,8 8 1 0,0
19.06.2018 12:00:00 20,2 14,4 22,7 24,2 22,2 19,1 16 8 35 19 W 1021,8 13 0 0,0
19.06.2018 11:00:00 19,2 13,5 20,9 24,1 22,1 19,1 19 11 32 17 W 1021,6 25 0 0,0
19.06.2018 10:00:00 19,2 13,8 20,6 22,3 22,1 19,1 15 8 24 13 WSW 1021,1 22 0 0,0
19.06.2018 09:00:00 18,1 14,2 18,2 21,3 22,2 19,1 11 6 21 11 WSW 1020,9 21 11 0,0
19.06.2018 08:00:00 17,6 14,3 18,4 21,1 22,3 19,1 10 6 20 11 WSW 1020,8 6 60 0,0
19.06.2018 07:00:00 15,9 14,5 15,4 17,7 22,7 19,1 11 6 18 10 WSW 1020,7 8 55 0,0
19.06.2018 06:00:00 15,3 14,4 14,1 17,3 23,2 19,1 10 6 18 10 WSW 1020,4 7 0 0,0
19.06.2018 05:00:00 15,6 14,9 14,5 18,3 23,6 19,0 8 4 14 7 WSW 1020,1 8 0 0,0
19.06.2018 04:00:00 16,3 15,8 15,9 19,7 23,9 19,0 7 4 24 13 SW 1019,8 7 0 1,0
19.06.2018 03:00:00 16,6 15,7 16,1 20,6 24,3 19,0 10 5 18 10 W 1019,9 7 0 0,4
19.06.2018 02:00:00 16,4 13,8 14,4 20,9 24,7 19,0 4 2 10 5 SW 1019,7 45 0 0,0
19.06.2018 01:00:00 17,6 14,1 16,3 21,6 25,1 19,0 6 3 13 7 SW 1019,9 47 0 0,0
19.06.2018 00:00:00 18,3 14,5 17,3 22,8 25,5 19,0 6 3 13 7 SW 1019,9 38 0 0,0
18.06.2018 23:00:00 19,6 14,5 19,0 24,2 25,9 19,0 7 4 29 16 WSW 1019,8 36 0 0,0
18.06.2018 22:00:00 21,3 13,1 20,9 25,4 26,2 19,0 11 6 21 11 W 1019,3 70 0 0,0
18.06.2018 21:00:00 21,7 12,8 21,0 27,2 26,4 19,0 14 8 24 13 WSW 1019,0 59 2 0,0
18.06.2018 20:00:00 22,5 12,8 23,1 29,4 26,5 19,0 11 6 23 12 WSW 1018,9 45 3 0,0
18.06.2018 19:00:00 22,8 12,7 24,4 31,7 26,4 19,0 15 8 25 14 WSW 1019,1 23 6 0,0
18.06.2018 18:00:00 24,0 12,6 28,2 33,4 26,3 19,0 12 7 27 15 W 1019,3 5 27 0,0
18.06.2018 17:00:00 22,8 12,6 26,7 33,5 26,0 19,0 16 8 31 17 SW 1019,4 19 2 0,0
18.06.2018 16:00:00 22,7 12,1 27,7 35,1 25,6 19,0 16 9 30 16 WSW 1019,6 5 19 0,0
18.06.2018 15:00:00 21,7 11,8 24,4 36,0 25,0 19,0 17 9 34 18 WSW 1020,0 11 9 0,0
18.06.2018 14:00:00 22,4 10,9 28,6 38,1 24,3 19,0 17 9 35 19 WSW 1020,0 14 44 0,0
18.06.2018 13:00:00 21,9 9,8 27,9 36,3 23,5 19,0 14 8 31 17 WSW 1020,0 38 46 0,0
18.06.2018 12:00:00 21,0 9,9 27,2 33,9 22,8 19,0 17 9 29 16 WSW 1020,1 11 33 0,0
18.06.2018 11:00:00 19,9 9,7 25,2 31,2 22,3 19,0 16 8 29 16 SW 1020,4 46 37 0,0
18.06.2018 10:00:00 19,4 9,7 24,6 28,5 22,0 19,0 11 6 23 13 W 1020,5 16 40 0,0
18.06.2018 09:00:00 18,4 10,1 23,9 25,0 21,8 19,0 9 5 22 12 WSW 1020,3 3,6 60 0,0
18.06.2018 08:00:00 16,3 10,7 19,8 20,5 22,0 19,0 9 5 16 9 W 1020,3 11 25 0,0
18.06.2018 07:00:00 15,1 10,7 15,2 18,7 22,2 19,0 4 2 13 7 WSW 1020,2 35 0 0,0
18.06.2018 06:00:00 14,9 10,3 14,7 18,2 22,5 18,9 7 4 13 7 W 1020,1 42 0 0,0
18.06.2018 05:00:00 14,8 10,1 13,9 18,6 22,8 18,9 5 3 9 5 SSW 1019,5 42 0 0,0
18.06.2018 04:00:00 15,6 9,7 14,9 18,8 23,2 18,9 6 4 11 6 W 1019,6 47 0 0,0
18.06.2018 03:00:00 14,8 9,9 14,4 18,8 23,6 18,9 4 2 7 4 SSW 1019,5 49 0 0,0
18.06.2018 02:00:00 14,0 9,6 12,6 18,8 24,1 18,9 0 0 5 3 N 1019,2 52 0 0,0
18.06.2018 01:00:00 13,4 9,5 11,9 19,1 24,6 18,9 4 2 6 4 S 1019,0 53 0 0,0
18.06.2018 00:00:00 14,0 9,0 11,8 20,2 25,1 18,9 4 2 11 6 SSW 1018,6 59 0 0,0
17.06.2018 23:00:00 16,7 9,0 14,7 22,0 25,6 18,9 6 4 11 6 SW 1018,2 70 0 0,0
17.06.2018 22:00:00 18,5 8,5 16,7 24,0 25,9 18,9 6 4 16 9 W 1018,0 70 0 0,0
17.06.2018 21:00:00 20,1 8,0 19,8 25,9 26,2 18,9 9 5 21 11 W 1017,4 65 0 0,0
17.06.2018 20:00:00 20,6 7,8 20,6 28,3 26,4 18,9 13 7 32 18 W 1017,3 34 36 0,0
17.06.2018 19:00:00 21,9 8,4 23,7 30,4 26,4 18,9 18 10 37 20 WNW 1016,8 14 21 0,0
17.06.2018 18:00:00 22,0 8,1 24,1 33,0 26,2 18,9 17 9 29 16 W 1016,7 6 47 0,0
17.06.2018 17:00:00 22,9 9,0 26,2 33,7 25,9 18,9 16 9 38 21 W 1016,5 7 30 0,0
17.06.2018 16:00:00 23,2 8,2 27,3 36,2 25,3 18,9 19 10 34 18 WNW 1016,1 9 54 0,0
17.06.2018 15:00:00 23,6 7,4 28,8 35,5 24,8 18,9 22 12 41 22 W 1015,9 11 45 0,0
17.06.2018 14:00:00 23,2 8,7 28,1 35,2 24,2 18,9 23 12 39 21 WSW 1015,8 13 28 0,0
17.06.2018 13:00:00 23,5 9,6 30,6 34,7 23,5 18,9 16 9 34 18 SW 1015,7 24 37 0,0
17.06.2018 12:00:00 22,0 10,2 27,8 31,9 23,0 18,8 17 9 30 16 WSW 1016,0 25 44 0,0
17.06.2018 11:00:00 20,2 11,6 22,5 29,0 22,6 18,8 18 10 29 16 W 1015,9 22 27 0,0
17.06.2018 10:00:00 19,9 12,0 25,3 27,7 22,3 18,8 13 7 26 14 WNW 1015,9 24 46 0,0
17.06.2018 09:00:00 19,3 13,9 23,4 24,2 22,3 18,8 13 7 24 13 WNW 1015,5 21 48 0,0
17.06.2018 08:00:00 17,7 14,8 20,5 21,0 22,5 18,8 11 6 21 11 W 1015,1 21 33 0,0
17.06.2018 07:00:00 16,3 14,8 16,2 19,7 22,7 18,8 6 3 14 7 WSW 1014,7 20 0 0,2
17.06.2018 06:00:00 17,0 13,2 16,8 19,8 23,0 18,8 5 3 10 6 W 1014,5 32 0 0,0
17.06.2018 05:00:00 17,2 12,6 16,4 19,9 23,3 18,8 5 3 19 11 WNW 1014,3 33 0 0,0
17.06.2018 04:00:00 17,8 12,2 17,4 20,0 23,7 18,8 13 7 24 13 W 1013,8 34 0 0,0
17.06.2018 03:00:00 15,4 11,7 15,3 20,0 24,1 18,7 3 2 4 2 W 1013,2 38 0 0,0
17.06.2018 02:00:00 14,8 11,5 14,8 20,0 24,6 18,7 0 0 3 2 N 1013,4 38 0 0,0
17.06.2018 01:00:00 14,5 11,2 13,2 20,7 25,1 18,7 2 1 3 2 SSE 1013,7 37 0 0,0
17.06.2018 00:00:00 16,3 11,6 15,5 22,1 25,6 18,7 2 1 4 2 SSE 1013,9 54 0 0,0
16.06.2018 23:00:00 16,3 11,7 14,4 23,2 26,0 18,7 2 1 3 1 S 1014,0 54 0 0,0
16.06.2018 22:00:00 19,6 12,2 16,4 25,9 26,3 18,7 0 0 6 3 N 1013,7 42 0 0,0
16.06.2018 21:00:00 24,7 10,7 23,2 29,1 26,5 18,7 5 3 16 8 SW 1013,4 70 49 0,0
16.06.2018 20:00:00 25,7 10,2 25,9 30,6 26,5 18,7 6 3 17 9 SW 1013,4 70 16 0,0
16.06.2018 19:00:00 26,3 9,9 27,4 33,1 26,4 18,7 12 7 19 10 SW 1013,4 37 41 0,0
16.06.2018 18:00:00 26,4 10,1 28,2 34,2 26,1 18,8 11 6 26 14 SW 1013,6 29 17 0,0
16.06.2018 17:00:00 26,4 9,9 28,7 36,0 25,7 18,8 15 8 31 17 S 1013,8 16 41 0,0
16.06.2018 16:00:00 26,9 9,4 30,9 36,6 25,2 18,8 17 9 27 15 SSW 1014,1 13 36 0,0
16.06.2018 15:00:00 27,0 9,0 30,6 36,9 24,5 18,8 12 7 27 15 S 1014,3 29 27 0,0
16.06.2018 14:00:00 26,5 10,0 30,9 36,5 23,8 18,8 12 7 27 15 S 1015,0 23 42 0,0
16.06.2018 13:00:00 25,4 10,6 29,1 34,9 23,1 18,8 19 10 33 18 S 1015,7 21 38 0,0
16.06.2018 12:00:00 25,2 11,3 29,3 33,2 22,4 18,8 15 8 25 14 SSE 1015,9 40 31 0,0
16.06.2018 11:00:00 24,4 11,6 28,9 32,8 21,7 18,8 13 7 22 12 S 1016,1 16 60 0,0
16.06.2018 10:00:00 23,9 12,4 27,5 29,3 21,2 18,7 14 8 27 14 S 1016,2 17 60 0,0
16.06.2018 09:00:00 21,9 12,7 25,0 25,1 21,0 18,7 9 5 17 9 SSE 1016,4 41 55 0,0
16.06.2018 08:00:00 18,6 13,1 21,1 20,6 21,1 18,7 3 1 5 3 E 1016,6 23 26 0,0
16.06.2018 07:00:00 14,3 12,6 14,7 17,8 21,4 18,7 0 0 5 3 N 1016,8 13 0 0,0
16.06.2018 06:00:00 12,6 11,6 12,6 17,0 21,7 18,7 0 0 4 2 N 1017,1 12 0 0,0
16.06.2018 05:00:00 11,9 11,3 11,5 17,0 22,1 18,7 3 1 4 2 WSW 1017,1 10 0 0,0
16.06.2018 04:00:00 12,3 11,9 9,8 17,3 22,5 18,7 2 1 5 3 N 1017,0 15 0 0,0
16.06.2018 03:00:00 12,6 11,5 11,0 18,3 22,9 18,7 0 0 6 3 N 1017,4 12 0 0,0
16.06.2018 02:00:00 14,6 12,5 12,0 19,5 23,3 18,7 2 1 6 4 NE 1017,3 16 0 0,0
16.06.2018 01:00:00 16,1 13,5 15,0 21,0 23,6 18,7 2 1 4 2 WSW 1017,1 23 0 0,0
16.06.2018 00:00:00 17,4 13,8 16,6 21,9 24,0 18,7 0 0 4 2 N 1017,2 28 0 0,0
15.06.2018 23:00:00 18,4 14,0 17,9 22,8 24,3 18,7 2 1 3 2 SSE 1017,4 31 0 0,0

tt = temperature
td = dewpoint
tt 5cm = temperature 5cm
tt -5cm = temperature -5cm
tt -20cm = temperature -20cm
tt -100cm = temperature -100cm
ff = wind speed
fx = gusts
dd = wind direction
ppp = reduced air pressure
vv = visibility
sd = sunshine duration
rr = precipitation

Next stations